Terminal Aerodrome Forecast
Issued by NWS

Home | Current Version | Previous Version | Text Only | Print | Product List | Glossary On
Versions: 1 2 3 4 5 6 7 8 9 10 11 12 13 14 15 16 17 18 19 20 21 22 23 24
001
FTUS43 KDLH 242345
TAFBRD
TAF
KBRD 242345Z 2500/2524 13005KT P6SM SCT070 BKN120
      TEMPO 2500/2502 3SM -TSRA BR BKN035CB OVC050
     FM250500 08005KT P6SM SCT080
     FM251500 10009KT P6SM SCT120
     FM251700 11010G18KT P6SM VCSH BKN060
     FM251900 11012G18KT 5SM -SHRA BR SCT025 BKN040=

USA.gov is the U.S. government's official web portal to all federal, state and local government web resources and services.